Weather History for Denver, CO

Change the Weather History Date:

Thursday, August 29, 2013

  Actual Average Record
Temperature  
Mean Temperature 80 °F 70 °F  
Max Temperature 95 °F 85 °F 97 °F (2012)
Min Temperature 65 °F 55 °F 44 °F (1962)
Degree Days  
Heating Degree Days 0 1  
Month to date heating degree days 0 3  
Since 1 June heating degree days 29 71  
Since 1 July heating degree days 0 9  
Cooling Degree Days 15 6  
Month to date cooling degree days 280 234  
Year to date cooling degree days 838 678  
Since 1 June cooling degree days 796 656  
Growing Degree Days 30 (Base 50)    
Moisture  
Dew Point 48 °F    
Average Humidity 38    
Maximum Humidity 58    
Minimum Humidity 17    
Precipitation  
Precipitation 0.00 in 0.05 in 0.50 in (1872)
Month to date precipitation 2.78 1.62  
Year to date precipitation 10.75 11.29  
Snow  
Snow 0.00 in - - ()
Month to date snowfall 0  
Since 1 June snowfall 0  
Since 1 July snowfall 0  
Snow Depth 0.00 in    
Sea Level Pressure  
Sea Level Pressure 29.94 in    
Wind  
Wind Speed 7 mph (WSW)    
Max Wind Speed 21 mph    
Max Gust Speed 25 mph    
Visibility 10 miles    
Events      
T = Trace of Precipitation, MM = Missing Value Source: NWS Daily Summary

Daily Weather History Graph

Daily Weather History Graph

Search for Another Location

Airport:

Trip Planner

Search our weather history database for the weather conditions in past years. The results will help you decide how hot, cold, wet, or windy it might be!

Date:

Astronomy

Aug. 29, 2013 Rise Set
Actual Time 6:24 AM MDT 7:34 PM MDT
Civil Twilight 5:56 AM MDT 8:01 PM MDT
Nautical Twilight 5:22 AM MDT 8:35 PM MDT
Astronomical Twilight 4:47 AM MDT 9:09 PM MDT
Moon 12:17 AM MDT (8/29) 3:04 PM MDT (8/29)
Length of Visible Light 14h 05m
Length of Day
13h 10m
Last Quarter, 37% of the Moon is Illuminated
Aug 29
Last Quarter
Sep 5
New
Sep 12
First Quarter
Sep 19
Full
Sep 26
Last Quarter

Hourly Weather History & Observations

Time (MDT) Temp. Dew Point Humidity Pressure Visibility Wind Dir Wind Speed Gust Speed Precip Events Conditions
12:53 AM 71.1 °F 48.9 °F 45% 29.90 in 10.0 mi West 8.1 mph - N/A   Partly Cloudy
1:53 AM 71.1 °F 48.0 °F 44% 29.90 in 10.0 mi West 8.1 mph - N/A   Clear
2:53 AM 66.9 °F 51.1 °F 57% 29.91 in 10.0 mi SW 9.2 mph - N/A   Clear
3:53 AM 66.0 °F 50.0 °F 56% 29.90 in 10.0 mi SW 8.1 mph - N/A   Clear
4:53 AM 66.0 °F 48.9 °F 54% 29.90 in 10.0 mi SW 10.4 mph - N/A   Clear
5:53 AM 66.9 °F 48.0 °F 51% 29.91 in 10.0 mi SSW 13.8 mph - N/A   Partly Cloudy
6:53 AM 66.9 °F 48.0 °F 51% 29.93 in 10.0 mi SW 11.5 mph - N/A   Scattered Clouds
7:53 AM 71.1 °F 48.9 °F 45% 29.96 in 10.0 mi SW 11.5 mph - N/A   Partly Cloudy
8:53 AM 77.0 °F 48.9 °F 37% 29.95 in 10.0 mi SW 10.4 mph - N/A   Partly Cloudy
9:53 AM 82.0 °F 50.0 °F 33% 29.96 in 10.0 mi West 4.6 mph - N/A   Partly Cloudy
10:53 AM 87.1 °F 46.9 °F 25% 29.95 in 10.0 mi Calm Calm - N/A   Partly Cloudy
11:53 AM 90.0 °F 46.0 °F 22% 29.94 in 10.0 mi Calm Calm - N/A   Partly Cloudy
12:53 PM 91.9 °F 46.0 °F 21% 29.92 in 10.0 mi North 5.8 mph - N/A   Partly Cloudy
1:53 PM 93.0 °F 45.0 °F 19% 29.91 in 10.0 mi Variable 4.6 mph - N/A   Partly Cloudy
2:53 PM 93.9 °F 43.0 °F 17% 29.91 in 10.0 mi Variable 3.5 mph - N/A   Partly Cloudy
3:53 PM 91.0 °F 43.0 °F 19% 29.90 in 10.0 mi South 3.5 mph - N/A   Scattered Clouds
4:53 PM 91.9 °F 44.1 °F 19% 29.91 in 10.0 mi East 5.8 mph - N/A   Scattered Clouds
5:53 PM 89.1 °F 48.0 °F 24% 29.92 in 10.0 mi NNE 5.8 mph - N/A   Mostly Cloudy
6:53 PM 84.9 °F 46.9 °F 27% 29.95 in 10.0 mi WNW 17.3 mph - N/A   Mostly Cloudy
6:57 PM 84.2 °F 48.2 °F 29% 30.21 in 10.0 mi WNW 17.3 mph - N/A   Mostly Cloudy
7:53 PM 81.0 °F 48.0 °F 31% 29.96 in 10.0 mi NW 13.8 mph - N/A   Mostly Cloudy
8:53 PM 80.1 °F 48.0 °F 32% 29.97 in 10.0 mi West 12.7 mph - N/A   Mostly Cloudy
9:53 PM 78.1 °F 48.9 °F 36% 29.98 in 10.0 mi SSW 3.5 mph - N/A   Mostly Cloudy
10:53 PM 78.1 °F 48.9 °F 36% 29.96 in 10.0 mi SW 8.1 mph - N/A   Mostly Cloudy
11:53 PM 73.0 °F 53.1 °F 49% 29.96 in 10.0 mi Calm Calm - N/A   Mostly Cloudy